RS-39
1 38051U 11062C   13220.85663432  .00013123  00000-0  40206-3 0  6792
2 38051 051.6369 316.0817 0011639 095.8415 006.2427 15.34060575 85861
E-STAR
1 38079U 12006C   13220.65602235  .00047818  32327-5  96920-3 0  3435
2 38079 069.4739 056.3317 0589331 067.2689 357.5057 14.51884570 77345
GOLIAT
1 38085U 12006J   13220.59478000  .00043011  31461-5  88431-3 0  2757
2 38085 069.4723 059.0880 0599501 068.7094 297.6934 14.49482919 77263
HORYU-2
1 38340U 12025D   13219.86753513  .00001037  00000-0  17702-3 0  5696
2 38340 098.2193 167.9810 0013732 088.5727 271.7047 14.71067612 65719
RS-40
1 38736U 12041D   13220.71851010  .00000010  00000-0  00000 0 0  3406
2 38736 082.4812 122.3829 0020155 210.3684 149.6229 12.42869739 46776
PROITERES
1 38756U 12047B   13220.85082024  .00000359  00000-0  62275-4 0   129
2 38756 098.2505 298.8565 0011438 303.0120 056.9982 14.74289903 49154
RAIKO
1 38852U 98067CN  13218.07382584  .24681979  12625-4  36599-3 0  3409
2 38852 051.6160 184.0336 0004489 261.9162 100.6538 16.48474690 47849
FITSAT 1
1 38853U 98067CP  13184.86912902  .06638326  12312-4  50483-3 0  3153
2 38853 051.6252 351.6077 0011722 245.9321 114.2104 16.39337660 42708
TechEdSat
1 38854U 98067CQ  13124.93253577  .11592855  12481-4  94246-3 0  2908
2 38854 051.6449 297.0261 0010505 310.8629 049.0629 16.38844728 33294
F 1
1 38855U 98067CR  13129.77714356  .27424026  12535-4  30797-3 0  2871
2 38855 051.5085 272.4145 0008326 194.2908 166.5495 16.49710473 33949
WeWish
1 38856U 98067CS  13069.98095549  .16701328  12537-4  10063-2 0  2487
2 38856 051.6166 215.0521 0008325 316.0438 044.8765 16.41348316 24586
OSSI-1
1 39131U 13015B   13188.41684431  .01502874  74059-5  44818-3 0    85
2 39131 064.8841 114.8425 0051126 026.6892 350.0589 16.22925119 12374
BEESAT-3
1 39134U 13015E   13220.81541338  .00002993  00000-0  24838-3 0  2748
2 39134 064.8775 043.2545 0007414 201.5930 254.1549 15.00673904 16729
BEESAT-2
1 39136U 13015G   13220.67943772  .00002591  00000-0  21714-3 0  2555
2 39136 064.8781 043.6927 0007447 202.9125 229.8030 15.00608951 16705
